Regional Weather Roundup
Issued by NWS

Home | Current Version | Previous Version | Graphics & Text | Print | Product List | Glossary On
Versions: 1 2 3 4 5 6 7 8 9 10 11 12 13 14 15 16 17 18 19 20 21 22 23 24 25 26 27 28 29 30 31 32 33 34 35 36 37 38 39 40 41 42 43 44 45 46 47 48 49 50
000
ASUS43 KOAX 281302
RWRNE

WEATHER ROUNDUP FOR NEBRASKA
NATIONAL WEATHER SERVICE OMAHA NE
800 AM CDT FRI AUG 28 2015

NOTES: SATELLITE DATA IS BEING USED TO AUGMENT CLOUD COVER ABOVE
       12000 FEET.
       "FAIR" INDICATES FEW OR NO CLOUDS BELOW 12,000 FEET WITH NO
       SIGNIFICANT WEATHER AND/OR OBSTRUCTIONS TO VISIBILITY.

  * THESE STATIONS DO NOT REPORT WEATHER SUCH AS RAIN...SNOW OR FOG.

NEZ001>004-019>022-054>056-281400-
NEBRASKA PANHANDLE

CITY           SKY/WX    TMP DP  RH WIND       PRES   REMARKS
SCOTTSBLUFF    CLEAR     58  52  80 NW8       30.09R
ALLIANCE       CLEAR     52  50  93 W6        30.06R
CHADRON        CLEAR     58  50  75 SW6       30.04R HAZE
KIMBALL        CLEAR     60  49  66 W14       30.13R
SIDNEY         CLEAR     61  52  72 NW13      30.10R
$$

NEZ057>060-069>072-079>082-281400-
SOUTHWEST NEBRASKA

CITY           SKY/WX    TMP DP  RH WIND       PRES   REMARKS
NORTH PLATTE   CLEAR     62  61  96 W8        29.97R
IMPERIAL       CLEAR     60  55  83 W5        30.01R
LEXINGTON      CLOUDY    69  67  92 NW9       29.92R
MC COOK        CLEAR     63  60  90 W10       29.97R
OGALLALA       CLEAR     58  55  92 W5        30.00S
$$

NEZ005>010-023>029-035>040-094-281400-
NORTH CENTRAL NEBRASKA

CITY           SKY/WX    TMP DP  RH WIND       PRES   REMARKS
AINSWORTH      RAIN      66  66  98 N9        29.95R
BROKEN BOW     CLOUDY    68  65  90 NW8       29.91S
O`NEILL        CLOUDY    65  65  99 N8        29.89S FOG
ORD            CLOUDY    67  65  93 NW8       29.86S
THEDFORD       MOCLDY    65  63  93 NW10      29.97R
$$

NEZ041-046>049-061>064-073>077-083>087-281400-
SOUTH CENTRAL NEBRASKA

CITY           SKY/WX    TMP DP  RH WIND       PRES   REMARKS
GRAND ISLAND   CLOUDY    67  65  93 W7        29.88R
AURORA         CLOUDY    67  67 100 W6        29.86S
HASTINGS       CLOUDY    67  64  90 N10       29.88R
HEBRON         PTSUNNY   72  66  81 SW12      29.86R
HOLDREGE       CLOUDY    68  65  92 NW9       29.91R
KEARNEY *      CLOUDY    70  64  83 NW13      29.89R
YORK           CLOUDY    68  68 100 NW12      29.86R FOG
$$

NEZ011>018-030>034-042>045-281400-
NORTHEAST NEBRASKA

CITY           SKY/WX    TMP DP  RH WIND       PRES   REMARKS
NORFOLK        CLOUDY    68  67  96 NW6       29.82R
ALBION         CLOUDY    67  64  91 NW8       29.84S FOG
BLAIR          CLOUDY    68  65  89 S9        29.84R
COLUMBUS *     PTSUNNY   70  63  78 W7        29.82R
FREMONT        CLOUDY    70  67  90 SE10      29.83R
TEKAMAH        CLOUDY    69  67  93 S9        29.80S
$$

NEZ050>053-065>068-078-088>093-281400-
SOUTHEAST NEBRASKA

CITY           SKY/WX    TMP DP  RH WIND       PRES   REMARKS
LINCOLN        CLOUDY    73  66  78 SW12      29.84R
OMAHA EPPLEY   CLOUDY    70  67  90 S14       29.84R
BEATRICE       CLOUDY    73  65  76 S18G28    29.85R
FALLS CITY     PTSUNNY   69  64  84 S15       29.88S
NEBRASKA CITY  CLOUDY    68  66  95 S13G18    29.86R
PLATTSMOUTH    CLOUDY    68  65  91 SE9       29.85S
$$

NEZ044-045-051>053-067-281400-
OMAHA AREA

CITY           SKY/WX    TMP DP  RH WIND       PRES   REMARKS
EPPLEY FIELD   CLOUDY    70  67  90 S14       29.84R
BLAIR          CLOUDY    68  65  89 S9        29.84R
FREMONT        CLOUDY    70  67  90 SE10      29.83R
MILLARD        CLOUDY    70  67  88 S7        29.83R
PLATTSMOUTH    CLOUDY    68  65  91 SE9       29.85S
WAHOO          CLOUDY    69  67  94 SE5       29.83R
$$


USA.gov is the U.S. government's official web portal to all federal, state and local government web resources and services.